Regional Weather Roundup
Issued by NWS New Orleans/Baton Rouge, LA

Home | Current Version | Previous Version | Text Only | Print | Product List | Glossary Off
Versions: 1 2 3 4 5 6 7 8 9 10 11 12 13 14 15 16 17 18 19 20 21 22 23 24 25 26 27 28 29 30 31 32 33 34 35 36 37 38 39 40 41 42 43 44 45 46 47 48 49 50

544
ASUS44 KLIX 222005
RWRLIX
NEW ORLEANS REGIONAL WEATHER ROUNDUP
NATIONAL WEATHER SERVICE NEW ORLEANS LA
300 PM CDT TUE APR 22 2014

NOTE: "FAIR" INDICATES FEW OR NO CLOUDS BELOW 12,000 FEET WITH NO
      SIGNIFICANT WEATHER AND/OR OBSTRUCTIONS TO VISIBILITY.
      SKY/WX - SKY CONDITION AND SIGNIFICANT WEATHER.
      TMP - AIR TEMPERATURE.     DP    - DEWPOINT TEMPERATURE.
      RH  - RELATIVE HUMIDITY.   PRES  - PRESSURE.
      HI  - HEAT INDEX.          WCI   - WIND CHILL INDEX.

*  THESE STATIONS ARE NOT NWS OR FAA STATIONS AND ARE NOT UNDER
   NWS QUALITY CONTROL.

LAZ038-040-048-061>063-065>067-069-222100-
SOUTHEAST LOUISIANA

CITY           SKY/WX    TMP DP  RH WIND       PRES   REMARKS
N.O. AUDUBON     N/A     71  67  87 MISG        N/A
N.O. INTL ARPT PTSUNNY   72  66  81 W12       29.93F
N.O. LAKEFRONT CLOUDY    70  66  87 W13       29.93F
N.O. DOWNTOWN* CLOUDY    73  61  64 SW5       29.94F
SLIDELL        PTSUNNY   77  65  66 VRB7      29.90F
BATON ROUGE    PTSUNNY   79  61  53 W9        29.92F
BOOTHVILLE     CLOUDY    71  65  81 SW15      29.95F
BELLE CHASSE   RAIN      71  65  81 NW5       29.93F FOG
BOGALUSA*        N/A     78  61  55 NW7       29.91F
GALLIANO*      CLOUDY    76  65  70 SW7       29.94F
NEW ROADS*       N/A     77  60  55 NW12G17   29.93F
GONZALES*      CLOUDY    78  65  63 W6        29.91F
HAMMOND*       MOSUNNY   79  59  50 W10       29.93F
HOUMA*         PTSUNNY   73  64  73 W12       29.96S
PORT FOURCHON* CLOUDY    73  66  78 W15       29.96F

$$

MSZ070-080>082-222100-
SOUTHERN MISSISSIPPI

CITY           SKY/WX    TMP DP  RH WIND       PRES   REMARKS
MCCOMB         CLOUDY    75  62  64 N13       29.92F
GULFPORT       PTSUNNY   76  64  66 CALM      29.90S
BILOXI         PTSUNNY   75  66  71 VRB2      29.91F
PASCAGOULA     CLOUDY    77  65  66 SW9       29.89F
STENNIS ARPT*  PTSUNNY   77  63  61 W8        29.91F

$$

COASTAL OBSERVATIONS
LAKE AND NEARSHORE STATIONS

STATION/POSITION TIME  TEMP    WIND        PRES    WAVE
                       AIR SEA DIR/SP/G            HT/PER
                 (UTC) (F)     (DEG/KT/KT) (MB)    (FT/S)
PASCAGOULA       2000   74     250/ 11/ 16 1012.1
WAVELAND YACHT   2000   73 72  260/  5/  9 1012.1
GRAND ISLE       2000   72 72  260/ 14/ 16 1014.4
SOUTHWEST PASS   2000   71 60  260/ 18/ 19 1014.7
NEW CANAL        2000   72 69  270/  5/  8 1013.9
SHELL BEACH      2000   70 67  320/  7/  9 1013.5

OFFSHORE STATIONS

STATION/POSITION TIME  TEMP    WIND        PRES    WAVE
                       AIR SEA DIR/SP/G            HT/PER
                 (UTC) (F)     (DEG/KT/KT) (MB)    (FT/S)
64 S DAUPHIN ISL 1947   69 71  240/ 10/ 12 1014.0

$$




USA.gov is the U.S. government's official web portal to all federal, state and local government web resources and services.